AirNav   Phillips 66 Aviation Fuel
 
 873 users online  

96WI Vette/Blust Seaplane Base
Oshkosh, Wisconsin, USA

GOING TO OSHKOSH?


FAA INFORMATION EFFECTIVE 07 DECEMBER 2017

Location

FAA Identifier: 96WI
Lat/Long: 43-56-27.9470N / 088-29-37.4060W
43-56.465783N / 088-29.623433W
43.9410964 / -88.4937239
(estimated)
Elevation: 750 ft. / 229 m (estimated)
Variation: 01W (1985)
From city: 5 miles W of OSHKOSH, WI
Time zone: UTC -6 (UTC -5 during Daylight Saving Time)
Zip code: 54979

Seaplane Base Operations

Seaplane Base use: Private use. Permission required prior to landing
Activation date: 02/1982
Control tower: no
ARTCC: CHICAGO CENTER
FSS: GREEN BAY FLIGHT SERVICE STATION
Attendance: UNATNDD
OPEN JULY 29 TH AUG 7 F EAA CONVENTION.
Wind indicator: no
Segmented circle: no

Seaplane Base Communications

WX ASOS at OSH (4 nm NW): PHONE 920-426-1644
WX ASOS at FLD (10 nm S): 134.0 (920-922-4444)
WX AWOS-3 at ATW (19 nm N): PHONE 920-832-2597

Nearby radio navigation aids

VOR radial/distance  VOR name  Freq  Var
OSHr136/4.0OSHKOSH VORTAC111.8002E
FAHr292/29.8FALLS VOR/DME110.0002W
BJBr334/(35.0)WEST BEND VOR109.8001W
MTWr254/36.9MANITOWOC VOR/DME111.0002W
GRBr198/39.0GREEN BAY VORTAC115.5001E

 
NDB name  Hdg/Dist  Freq  Var  ID
POBER037/4.939503WOS --- ...
GAMIE165/13.923002WAT .- -
JUNEAU017/32.034401WUNU ..- -. ..-
WAUPACA137/32.738201WPCZ .--. -.-. --..

Seaplane Base Services

Runway Information

Runway 7/25

Dimensions: 1300 x 60 ft. / 396 x 18 m
Surface: turf
RUNWAY 7  RUNWAY 25
Traffic pattern: leftleft

Runway N/S

Dimensions: 10000 x 4000 ft. / 3048 x 1219 m
Surface: water
RUNWAY N  RUNWAY S
Traffic pattern: leftleft

Seaplane Base Ownership and Management from official FAA records

Ownership: Privately-owned
Owner: JOHN VETTE & BURLEIGH BLUST
5050 LAKE ROAD
OSHKOSH, WI 54902
Phone 920-233-3732
Manager: JOHN VETTE & BURLEIGH BLUST
5050 LAKE ROAD
OSHKOSH, WI 54902
Phone 414-231-7370

Seaplane Base Operational Statistics

Aircraft based on the field: 3
Single engine airplanes: 3
    

Instrument Procedures

There are no published instrument procedures at 96WI.

Some nearby airports with instrument procedures:

KOSH - Wittman Regional Airport (4 nm NW)
KFLD - Fond Du Lac County Airport (10 nm S)
8D1 - New Holstein Municipal Airport (16 nm E)
KATW - Appleton International Airport (19 nm N)
KSBM - Sheboygan County Memorial Airport (30 nm E)
 
Loc | Ops | Rwys | IFR | FBO | Links
Com | Nav | Svcs | Stats | Notes


 
Area around 96WI (Vette/Blust Seaplane Base)
 
Road maps at: MapQuest Bing Google
 
Aerial photo
WARNING: Photo may not be current or correct
Aerial photo of 96WI (Vette/Blust Seaplane Base)
Do you have a better or more recent aerial photo of Vette/Blust Seaplane Base that you would like to share? If so, please send us your photo.

 
Sectional chart

 
Airport distance calculator
Flying to Vette/Blust Seaplane Base? Find the distance to fly.

From to 96WI

Sunrise and sunset
Times for 11-Dec-2017
 Local
(UTC-6)
 Zulu
(UTC)
Morning civil twilight06:4712:47
Sunrise07:1913:19
Sunset16:1522:15
Evening civil twilight16:4822:48

Current date and time
Zulu (UTC)  12-Dec-2017 03:36:44
Local (UTC-6)  11-Dec-2017 21:36:44
 
METAR
KOSH 
3nm NW 
120253Z 33019G26KT 8SM -SN BKN032 OVC039 M03/M09 A2989 RMK AO2 PK WND 34029/0210 SNB45 SLP140 P0000 60000 T10331094 53033
KFLD 
10nm S 
120253Z AUTO 33019G31KT 10SM FEW027 OVC035 M02/M09 A2988 RMK AO2 PK WND 33032/0236 UPB26E42SNB25E26B27E35 SLP129 P0000 60000 T10221089 50016
KATW 
19nm N 
120245Z 33020G25KT 10SM BKN041 OVC100 M04/M13 A2988
TAF
KATW 
19nm N 
111724Z 1118/1218 18007KT P6SM OVC010 FM112000 28006KT P6SM OVC013 FM112100 31007KT P6SM OVC019 FM112300 33010G18KT P6SM BKN050 FM120200 32014G25KT P6SM SCT080
NOTAMs
Click for the latest NOTAMs
NOTAMs are issued by the DoD/FAA and will open in a separate window not controlled by AirNav.

 

 
 

Would you like to see your business listed on this page?

 If your business provides an interesting product or service to pilots, flight crews, aircraft, or users of the Vette/Blust Seaplane Base, you should consider listing it here.  To start the listing process, click on the button below
 
Add a business
 

Other Pages about Vette/Blust Seaplane Base

Update a link
 
Copyright © AirNav, LLC. All rights reserved. Privacy Policy  Contact